SCP
0 0 0 1 0 0 0 0 0 0 0 0 0 1 1 1 1 1 1 1 1 1 0 0 0 0 1 1 0 0 1 1 1 1 1 0 0 0 0 0 0 0 0
0 0 1 1 1 0 0 0 0 0 0 0 1 1 1 1 1 1 1 1 1 1 0 0 0 0 1 1 0 1 1 1 1 1 0 0 0 0 0 0 1 0 0
0 0 1 1 1 0 0 0 0 0 0 0 1 1 0 0 1 1 1 1 1 0 0 0 0 0 1 0 0 1 1 1 1 1 0 0 0 0 0 0 1 1 0
0 0 1 1 0 0 0 0 0 0 0 1 1 0 0 0 0 0 0 0 0 0 0 0 0 0 0 0 0 1 1 1 1 0 0 0 0 0 0 0 1 1 0
0 0 0 0 0 0 0 0 0 0 0 0 0 0 0 0 0 0 0 0 0 0 0 0 0 0 0 0 0 1 1 0 0 0 0 0 0 0 0 0 0 1 1
0 0 0 0 0 0 0 0 0 0 0 0 0 0 0 0 0 0 0 0 0 0 0 0 0 1 0 0 1 1 1 0 1 1 0 0 0 0 0 0 0 1 1
0 0 0 0 0 0 0 0 0 0 0 0 0 0 0 0 0 0 0 0 0 0 0 0 0 1 0 0 1 1 1 0 0 1 1 0 0 0 0 0 0 0 0
0 0 0 0 0 0 0 0 0 0 0 0 0 0 0 0 0 0 0 0 0 0 0 0 0 1 1 0 1 1 1 1 0 1 1 0 0 0 0 0 0 0 0
0 0 0 0 0 0 0 0 0 0 0 0 0 0 0 0 0 0 0 0 0 0 0 0 0 1 1 0 1 1 1 1 1 0 0 0 0 0 0 0 0 1 1
0 0 0 0 0 0 0 0 0 0 0 0 0 0 0 0 0 0 0 0 0 0 0 0 0 1 1 0 1 1 1 1 1 0 0 0 0 0 0 0 0 1 1
0 0 0 0 0 0 0 0 0 0 0 0 0 0 0 0 0 0 0 0 0 0 0 0 0 1 0 0 0 1 1 1 0 0 0 0 0 0 0 0 1 1 1
0 0 0 0 0 0 0 0 0 0 0 0 0 0 0 0 0 0 0 0 0 0 0 0 0 0 0 0 0 1 1 0 0 0 0 0 0 0 0 1 1 1 1
0 0 0 0 0 0 0 0 0 0 0 0 0 0 0 0 0 0 0 0 0 0 0 0 0 0 0 0 0 1 0 0 0 0 0 0 0 0 1 1 1 1 1
0 0 0 0 0 0 0 0 0 0 0 0 0 0 0 0 0 0 0 0 0 0 0 0 0 0 0 0 0 1 0 0 0 0 0 0 0 1 1 1 1 1 1
0 0 0 0 0 0 0 0 0 0 0 0 0 0 0 0 0 0 0 0 0 0 0 0 0 0 0 0 0 1 1 0 0 0 0 0 0 1 1 1 1 1 1
0 0 0 0 0 0 0 0 0 0 0 0 0 0 0 0 0 0 0 0 0 0 0 0 0 0 0 1 1 1 1 0 0 0 0 0 0 0 1 1 1 1 1
0 0 0 0 0 0 0 0 0 0 0 0 0 0 0 0 0 0 0 0 0 0 0 0 0 0 0 1 1 1 1 0 0 0 0 0 0 0 1 1 1 1 1
0 1 1 0 0 0 0 0 0 0 0 0 0 0 0 0 0 0 0 0 0 0 0 0 0 0 0 1 1 1 1 0 0 0 0 0 0 0 1 1 1 1 1
0 1 1 1 1 1 0 0 0 0 0 0 0 0 0 0 0 0 0 0 0 0 0 0 0 0 1 1 1 0 0 0 0 0 0 0 0 1 1 1 1 1 1
1 1 1 1 1 1 0 0 0 0 0 0 0 0 0 0 0 0 0 0 0 0 0 0 0 0 0 0 0 0 0 0 0 0 0 0 1 1 1 1 0 0 1
0 1 1 1 1 0 0 0 0 0 0 0 0 0 0 0 0 0 0 0 0 0 0 0 0 0 0 0 0 0 0 0 0 0 0 1 1 1 1 0 0 0 0
0 0 0 1 1 0 0 0 0 0 0 0 0 0 0 0 0 0 0 0 0 0 0 0 0 0 0 0 0 0 0 0 0 0 0 0 1 1 0 0 0 0 0
0 0 0 1 1 0 0 0 0 0 0 0 0 0 0 0 0 0 0 0 0 0 0 0 0 0 0 0 0 0 0 0 0 0 0 0 0 0 0 0 0 0 0
0 0 0 1 1 1 0 0 0 0 0 0 0 0 0 0 0 0 0 0 0 0 0 0 0 0 0 0 0 0 0 0 0 0 0 0 0 0 0 0 0 0 0
0 0 0 1 1 1 1 0 0 0 0 0 0 0 0 0 0 0 0 0 0 0 0 0 0 0 0 0 0 0 0 0 0 0 0 0 0 0 0 0 0 0 0
1 1 1 1 1 1 1 1 0 0 0 0 0 0 0 0 0 0 0 0 0 0 0 0 0 0 0 0 0 0 0 0 0 0 0 0 0 0 0 0 0 0 0
Wind_Speed
4 5 6 6 8 9 9 10 10 10 10 10 10 10 9 9 9 9 8 8 7 7 7 7 7 7 8 8 7 7 8 8 8 8 8 9 9 9 8 7 5 4 6
5 6 7 7 8 9 10 10 10 10 10 9 9 9 9 9 8 8 8 7 7 7 7 7 7 7 7 7 7 7 8 8 8 7 5 6 9 9 9 9 8 6 6
6 6 8 7 8 9 9 9 9 10 10 9 9 9 9 8 8 8 8 8 8 7 7 7 7 7 7 7 7 7 8 8 7 5 1 5 8 10 9 9 9 8 7
7 6 8 8 9 9 9 9 9 10 9 9 9 9 8 8 8 8 8 8 7 7 7 7 7 7 6 6 7 8 8 8 6 2 4 7 7 11 10 10 9 9 8
7 7 9 8 9 9 9 9 9 9 9 9 9 9 9 9 9 8 8 7 7 7 7 7 7 7 7 7 8 8 8 6 3 3 7 7 7 10 10 10 10 9 8
8 8 9 8 9 9 9 9 9 9 9 9 9 9 9 9 8 8 8 8 7 7 7 7 7 7 8 8 8 8 7 4 1 6 7 7 8 10 10 10 10 9 9
8 7 9 8 9 9 9 9 9 9 9 9 9 9 8 8 8 8 8 7 7 7 7 7 7 7 7 8 8 8 7 4 5 6 6 7 9 10 10 10 10 10 9
7 7 8 10 9 9 9 9 9 9 9 9 8 8 8 8 8 8 8 8 7 7 7 7 7 7 8 8 8 8 6 4 6 6 7 7 9 9 10 10 10 10 10
7 6 6 8 9 9 8 8 8 8 8 8 8 8 7 7 8 8 8 8 8 7 7 7 7 8 8 8 8 7 6 4 4 5 6 7 8 9 9 10 10 10 10
6 6 6 6 6 6 7 8 7 8 7 7 7 7 5 5 6 6 7 9 8 8 7 7 8 8 8 8 7 6 3 0 6 6 5 7 8 9 9 9 9 9 10
6 6 6 6 5 5 6 6 5 6 5 4 6 5 1 4 5 5 10 8 8 8 8 8 8 8 7 8 7 3 0 4 6 5 6 8 8 9 10 10 9 9 9
7 6 5 5 5 5 4 4 3 4 3 4 5 5 4 4 5 5 8 7 7 7 7 8 6 5 2 5 5 1 3 5 5 5 7 9 9 9 9 10 10 10 9
6 5 5 5 4 4 3 3 2 2 2 3 5 5 4 4 3 3 3 4 4 3 5 5 3 4 4 4 4 4 5 4 4 5 8 10 9 9 9 9 9 10 10
6 5 5 4 5 4 4 3 2 2 2 3 3 4 3 3 3 4 2 3 3 3 3 3 3 5 5 5 5 6 6 4 4 4 8 11 11 10 10 9 10 10 10
6 5 5 4 4 4 4 2 2 3 2 3 2 3 4 3 3 3 3 3 3 3 3 3 4 5 5 6 5 6 6 6 5 5 5 11 11 11 11 11 10 10 10
6 6 5 4 4 3 3 3 3 3 2 3 3 3 4 3 3 3 3 3 3 3 3 3 4 3 4 4 5 5 5 6 6 5 5 7 10 11 12 11 11 10 10
6 6 6 4 4 3 3 4 3 2 3 3 3 3 3 3 3 3 3 3 3 3 3 3 4 3 3 4 4 5 5 5 5 6 5 4 5 9 11 12 11 11 11
6 6 6 4 4 4 3 3 2 2 3 3 2 2 3 3 4 3 2 3 3 3 2 3 2 3 3 3 3 4 4 3 5 5 4 5 5 4 8 11 11 11 11
6 7 7 6 5 5 4 3 2 3 3 2 2 2 2 3 3 3 2 2 3 2 2 2 2 2 3 3 3 3 3 3 4 4 5 6 5 5 5 6 8 10 12
7 7 6 6 5 5 3 3 3 2 2 2 2 2 3 2 3 3 2 3 3 2 2 3 3 3 3 2 3 3 3 3 3 4 4 4 4 6 6 5 4 6 10
8 7 7 7 6 5 3 3 2 2 2 2 2 2 2 2 2 2 1 3 2 2 2 3 3 4 3 1 2 3 3 3 3 3 2 3 4 5 4 5 4 4 4
9 8 8 7 7 6 4 3 2 2 1 1 1 2 1 2 2 1 2 2 2 2 2 3 2 2 2 0 1 1 1 3 2 2 2 2 3 3 4 5 5 5 5
9 9 7 8 8 7 6 4 3 3 2 3 2 2 1 1 1 1 1 1 1 1 2 2 2 1 1 1 2 3 2 1 1 2 2 2 3 2 3 3 4 5 6
10 9 9 8 8 8 7 6 6 4 3 2 2 2 2 2 2 1 1 1 2 1 2 1 1 1 1 1 1 2 3 3 2 1 2 2 2 2 3 3 4 4 5
9 8 8 8 8 8 8 7 6 4 3 2 2 3 3 2 2 2 2 2 2 1 1 1 1 0 0 1 1 0 1 0 3 2 0 0 1 1 2 3 3 3 4
8 8 8 9 8 8 8 8 7 6 5 4 4 3 3 2 2 2 2 2 2 2 2 1 1 1 0 1 1 1 1 1 2 2 2 1 1 1 1 2 2 3 3
Wind_Direction
94 87 86 91 91 92 91 91 89 88 86 86 88 87 84 80 77 74 71 73 75 76 75 73 72 73 72 66 64 68 68 65 61 60 61 58 53 51 47 43 39 77 79
97 95 94 91 92 88 87 90 85 84 83 83 84 85 84 81 78 74 72 74 75 75 73 73 75 76 75 69 63 66 69 66 62 57 61 78 64 50 48 49 39 52 69
101 102 108 96 93 90 85 82 82 81 81 81 82 83 83 81 78 75 72 74 74 74 73 71 73 74 75 71 68 67 66 64 59 53 40 65 72 55 47 48 48 55 60
102 99 93 93 92 92 87 82 79 78 78 78 79 80 82 79 75 75 71 70 73 74 74 74 74 72 71 72 71 69 69 63 50 352 55 56 58 56 46 46 46 52 57
104 100 95 93 91 89 84 81 78 76 75 78 79 79 78 75 70 70 67 64 67 72 75 77 78 74 72 73 72 71 72 67 56 48 58 56 58 53 46 45 47 51 55
108 104 99 93 90 86 84 80 77 76 75 77 77 75 74 72 69 66 65 63 63 69 73 76 77 79 76 75 76 75 71 57 59 63 60 57 58 53 48 48 47 49 53
109 103 101 93 90 85 83 81 78 77 76 75 74 71 69 68 66 62 63 66 67 69 72 75 78 82 84 79 78 76 68 37 58 68 65 62 59 54 53 50 46 46 51
108 105 106 101 89 82 76 74 73 74 74 73 71 69 66 62 60 59 60 66 67 68 72 73 74 81 87 83 79 74 56 2 76 67 66 65 57 53 54 53 48 48 50
108 106 103 109 108 99 81 69 69 70 70 70 68 66 65 63 60 59 60 63 67 67 71 75 80 84 86 82 79 75 67 16 60 66 68 65 58 56 55 52 50 48 46
110 108 106 103 100 104 100 79 69 68 69 71 69 66 73 94 87 72 73 64 63 65 68 75 86 87 88 83 79 76 68 19 59 67 61 66 58 57 58 53 49 47 45
118 119 118 112 103 93 87 92 97 91 80 104 99 92 116 84 84 88 61 60 62 66 68 76 85 92 101 99 84 73 41 64 67 61 59 54 54 57 58 54 50 46 43
128 122 119 118 112 103 89 92 80 84 83 69 66 70 66 71 64 67 89 70 70 73 84 77 87 117 138 102 106 152 69 67 65 67 62 47 53 56 56 52 47 44 40
131 128 127 122 116 113 107 91 73 71 75 70 61 68 63 76 91 85 94 103 91 95 89 101 121 82 80 75 71 72 58 53 58 63 59 46 49 50 50 48 44 41 39
141 136 136 133 124 116 107 94 88 83 76 69 57 61 65 66 69 75 78 70 73 74 70 77 73 82 84 83 74 72 72 62 56 61 60 46 44 43 43 42 42 39 36
152 153 146 141 120 108 95 87 90 73 58 76 59 58 70 66 73 83 85 78 73 77 89 76 79 76 75 73 68 67 71 67 62 60 68 56 46 43 42 41 40 39 37
164 155 148 152 130 119 118 107 79 75 84 71 65 55 66 69 70 80 87 81 76 71 73 86 89 87 79 74 72 68 63 66 63 62 60 75 64 50 44 42 39 37 36
164 159 154 154 145 130 106 84 78 69 70 69 72 59 66 68 71 76 72 80 81 86 88 85 88 83 85 89 83 74 69 59 62 60 56 49 67 68 50 40 37 37 36
172 165 158 162 155 136 118 104 91 78 67 63 68 55 61 69 68 73 73 79 82 86 87 85 81 90 94 89 83 75 76 71 65 60 61 62 52 50 66 50 40 37 35
179 174 168 166 159 145 136 127 98 87 72 64 63 53 47 60 65 79 72 79 91 91 89 91 85 89 91 89 93 85 74 67 62 55 57 53 58 49 56 72 59 45 35
184 180 170 164 167 152 152 140 121 101 90 70 63 63 44 52 68 85 95 91 90 98 101 104 103 91 86 95 93 88 83 85 75 53 47 50 44 46 43 41 53 68 50
189 189 179 179 172 167 163 166 156 139 126 100 79 74 77 64 70 81 85 81 85 100 103 113 117 117 110 106 138 125 117 94 76 72 42 38 53 46 41 44 35 29 61
194 196 193 188 181 176 172 170 168 151 142 105 114 98 80 79 79 100 109 110 107 109 117 112 126 124 108 308 290 237 168 149 123 77 57 30 36 50 38 37 38 37 26
198 197 197 194 185 182 176 171 166 161 178 168 157 128 89 90 97 96 114 114 120 143 125 122 141 144 139 120 352 326 321 24 94 117 67 56 41 31 39 33 32 31 28
198 197 197 193 189 183 180 186 187 193 190 177 159 142 146 143 135 145 148 154 144 123 127 146 119 146 237 163 107 358 353 7 301 144 140 80 43 30 27 23 23 28 26
194 195 198 191 188 186 188 190 202 203 190 173 165 158 162 142 154 161 166 168 158 149 144 122 118 201 254 316 326 20 43 313 292 311 344 89 115 65 33 18 17 20 19
189 191 194 191 188 188 194 197 205 202 197 188 189 179 177 156 166 166 173 174 172 164 159 155 153 149 353 17 315 315 305 307 318 318 299 292 348 62 46 32 8 21 14